Regional Weather Roundup
Issued by NWS

Home | Current Version | Previous Version | Graphics & Text | Print | Product List | Glossary On
Versions: 1 2 3 4 5 6 7 8 9 10 11 12 13 14 15 16 17 18 19 20 21 22 23 24 25 26 27 28 29 30 31 32 33 34 35 36 37 38 39 40 41 42 43 44 45 46 47 48 49 50
000
ASUS43 KFSD 011410
RWRSD

WEATHER ROUNDUP FOR SOUTH DAKOTA
NATIONAL WEATHER SERVICE SIOUX FALLS SD
900 AM CDT WED OCT 01 2014

NOTE: "FAIR" INDICATES FEW OR NO CLOUDS BELOW 12,000 FEET WITH NO
SIGNIFICANT WEATHER AND/OR OBSTRUCTIONS TO VISIBILITY.


SDZ001>005-009-010-012>017-011500-
NORTHWEST AND NORTH CENTRAL SOUTH DAKOTA

CITY           SKY/WX    TMP DP  RH WIND       PRES   REMARKS
BUFFALO          N/A     50  47  89 W18G26    29.74R
FAITH            N/A     54  49  83 W15       29.77R
MOBRIDGE       PTSUNNY   56  51  84 W8        29.70R
$$

SDZ012>016-024>037-041>051-057-063-072>074-011500-
SOUTHWEST AND SOUTH CENTRAL SOUTH DAKOTA

CITY           SKY/WX    TMP DP  RH WIND       PRES   REMARKS
RAPID CTY ARPT SUNNY     54  46  74 N10       29.81R
PIERRE         PTSUNNY   56  48  74 W10       29.75R
CUSTER         SUNNY     48  39  71 CALM      29.86R
ELLSWORTH AFB  MOSUNNY   55  45  69 N13       29.81R
PHILIP         SUNNY     51  47  86 CALM      29.79R
PINE RIDGE     SUNNY     48  45  89 CALM      29.84R
WINNER         FAIR      59  49  69 W12       29.77R
$$

SDZ004>011-016>023-039-040-011500-
NORTHEAST SOUTH DAKOTA

CITY           SKY/WX    TMP DP  RH WIND       PRES   REMARKS
ABERDEEN       CLOUDY    56  51  84 SW6       29.70R
WATERTOWN      CLOUDY    61  59  93 SW9       29.71F
SISSETON         N/A     61  59  93 SW6       29.68R
$$

SDZ017-020-022-023-036>040-048>070-011500-
SOUTHEAST SOUTH DAKOTA

CITY           SKY/WX    TMP DP  RH WIND       PRES   REMARKS
SIOUX FALLS    CLOUDY    64  61  90 S7        29.74R
HURON          CLOUDY    61  60  97 SW5       29.72R FOG
CHAMBERLAIN    PTSUNNY   53  49  86 W5        29.76R
MITCHELL       CLOUDY    62  61  96 SW3       29.73R
YANKTON        PTSUNNY   64  59  82 SE9       29.72F
$$

ABBREVIATIONS USED IN REMARKS
   TC - TEMPERATURE IN CELSIUS
  WCI - WIND CHILL INDEX
   HX - HEAT INDEX
  VSB - VISIBILITY




USA.gov is the U.S. government's official web portal to all federal, state and local government web resources and services.